Theta_e
332 332 331 332 330 327 330 332 330 330 329 329 329 328 328 326 323 322 321 319 320 322 324 325 327 327 328 329 329 329 331 331 330 331 330 329 330 329 327 325 325 325
332 331 330 331 331 330 330 330 329 329 329 329 329 328 326 323 321 321 319 318 320 321 320 322 324 325 326 328 327 328 330 329 329 331 331 330 330 330 328 326 325 324
331 330 330 331 331 330 329 328 329 329 328 327 327 324 322 320 319 318 317 319 323 324 321 320 322 324 327 328 326 328 330 328 327 329 330 330 330 330 327 325 325 323
330 328 330 331 331 329 327 326 327 327 326 325 323 320 318 316 317 318 317 319 323 324 321 319 320 323 326 328 327 329 329 327 326 326 326 328 329 329 326 323 324 323
329 328 329 330 330 328 326 324 325 326 326 323 320 320 317 314 318 321 321 320 321 322 321 319 319 321 323 324 326 327 327 326 325 324 324 327 327 326 324 323 323 323
328 328 328 328 328 327 325 325 326 326 324 320 320 321 317 315 320 323 322 323 322 321 322 320 319 321 322 322 323 326 326 325 325 325 326 327 326 325 324 322 321 322
329 329 328 328 327 327 326 327 327 326 323 321 322 322 319 318 323 324 323 323 322 320 322 323 322 321 321 322 323 325 326 326 326 327 327 327 326 325 325 324 324 324
328 328 328 328 327 326 327 328 327 325 323 324 324 322 321 323 324 323 322 322 322 321 322 323 324 323 322 322 323 324 326 326 326 326 326 325 325 325 325 327 327 326
328 327 327 327 326 326 327 327 326 324 323 325 324 321 323 325 323 320 320 321 322 323 323 323 324 324 322 322 323 323 325 325 324 324 324 324 325 324 325 327 328 327
328 327 328 327 327 327 328 327 326 324 323 324 324 323 323 323 321 320 320 321 322 323 323 324 324 324 323 322 322 323 323 323 323 324 324 324 323 323 322 324 326 327
328 328 328 327 327 327 327 326 326 324 323 324 325 324 323 321 319 319 321 321 321 322 323 323 323 323 323 323 323 322 322 322 322 323 323 322 322 321 320 321 323 324
328 328 328 327 327 327 326 326 326 325 325 325 324 323 321 320 319 319 320 321 320 321 321 321 321 322 322 323 323 322 322 321 321 322 322 321 321 320 320 321 321 322
327 327 327 326 327 326 325 326 326 325 325 325 323 322 321 320 319 318 319 320 320 320 320 320 320 320 321 322 322 322 322 322 321 322 321 321 321 320 320 321 321 321
327 326 326 326 325 325 325 325 325 324 324 323 322 321 319 318 318 317 319 320 320 320 319 319 319 319 319 320 320 321 322 322 322 322 321 321 321 320 320 321 321 321
326 324 324 324 324 325 325 325 324 323 322 321 320 319 318 318 317 316 318 319 320 319 319 318 318 318 318 319 319 319 320 321 322 322 321 321 321 321 321 321 321 320
325 322 321 322 322 324 325 324 323 322 321 320 320 319 319 318 317 317 317 318 318 319 319 318 317 317 317 318 318 318 318 319 320 321 321 321 320 320 320 320 319 320
325 321 319 321 322 322 323 322 320 319 319 320 320 320 319 319 318 317 317 318 318 319 317 316 316 316 315 316 317 317 317 318 318 320 320 320 319 319 319 319 318 319
324 321 320 321 320 320 321 320 317 316 316 317 318 318 318 320 320 320 319 319 318 316 312 311 312 311 311 312 313 314 316 316 317 319 320 319 319 319 318 318 317 318
322 321 321 321 320 320 321 318 315 315 316 315 314 315 316 318 319 320 319 317 315 312 310 310 310 310 310 310 310 311 311 312 315 319 319 318 319 319 319 319 319 319
321 321 321 321 320 321 320 317 315 316 316 314 313 314 314 315 316 317 316 315 313 313 312 313 312 312 312 312 311 311 310 311 317 319 319 319 320 320 320 321 321 321
321 321 320 321 321 320 319 318 317 317 317 315 313 312 313 313 313 314 315 315 315 313 313 314 313 314 314 313 313 313 312 313 317 318 319 320 320 319 319 320 319 319
319 320 320 321 320 319 318 318 319 318 317 316 313 311 311 313 313 313 315 317 316 315 314 314 314 314 314 314 314 314 314 315 316 317 319 321 320 317 318 319 318 316
317 318 320 320 318 317 316 317 318 318 317 316 314 312 311 313 314 314 314 316 317 316 316 316 315 314 314 314 314 314 314 314 316 318 319 320 319 317 318 320 318 315
316 316 318 318 316 316 317 317 317 316 316 316 314 313 313 313 314 314 315 316 317 318 318 318 317 317 316 315 315 315 315 315 316 316 317 318 318 317 318 319 318 317
316 316 317 317 316 317 317 316 316 315 315 315 315 314 315 315 316 316 317 317 317 318 318 318 318 318 318 317 316 316 317 317 316 315 314 316 317 316 315 315 315 316
314 314 314 314 314 314 314 313 313 313 313 314 314 314 315 315 316 316 316 317 317 317 317 317 317 316 316 317 317 316 317 318 318 317 315 315 316 315 313 311 310 311
Wind_Speed
18 16 14 13 12 12 11 11 10 9 8 7 5 5 5 5 6 6 6 6 5 4 4 4 5 7 7 8 10 9 7 9 9 7 8 9 7 6 9 12 12 11
17 16 15 14 13 13 12 12 11 10 9 8 7 6 6 5 5 6 6 6 4 4 5 5 5 6 6 7 8 7 7 9 9 7 7 7 6 6 7 8 9 10
18 17 16 14 14 14 14 13 12 11 10 9 8 7 5 3 4 4 6 6 4 5 6 5 4 5 5 5 5 5 6 7 9 9 8 7 6 6 7 7 8 9
18 18 17 15 14 15 14 14 13 11 11 9 8 6 3 3 3 3 5 7 6 7 7 6 5 5 5 5 4 4 6 6 8 10 9 8 8 7 8 8 8 10
18 18 17 15 15 15 14 13 12 11 11 9 7 5 4 4 5 4 4 5 6 7 6 6 6 6 6 6 5 5 6 7 8 9 9 9 8 8 8 8 9 12
19 18 17 15 15 16 15 13 12 11 10 9 8 6 5 5 5 5 4 4 4 5 5 6 6 6 6 6 5 5 6 6 8 9 10 9 7 7 7 8 10 12
20 19 17 17 17 16 15 13 12 11 10 9 8 7 5 5 5 5 4 4 4 4 4 4 5 6 7 6 5 5 4 5 7 7 7 6 5 6 7 8 8 9
22 21 19 18 18 17 15 14 13 11 10 9 8 7 7 6 5 5 5 4 4 4 5 5 4 5 7 6 5 5 4 4 5 4 4 4 4 5 6 7 8 9
22 21 20 18 18 17 15 14 13 12 11 10 8 8 8 6 5 4 5 5 5 4 4 4 4 5 6 5 4 4 3 4 4 4 4 5 5 6 6 7 9 10
22 21 21 19 18 18 16 15 14 12 11 9 8 7 7 6 5 4 5 6 6 5 4 4 4 4 4 3 3 3 3 3 4 4 5 5 5 6 6 6 8 10
23 22 22 21 19 18 18 16 15 13 12 10 8 8 7 6 5 5 5 6 6 5 4 3 3 4 5 5 5 4 4 4 5 5 6 6 6 7 6 5 6 8
24 23 22 21 19 18 19 17 15 14 13 11 9 8 7 7 6 6 5 5 6 5 5 4 3 3 4 5 6 6 5 5 6 6 7 7 6 6 7 6 6 7
24 23 22 21 20 20 19 17 15 14 13 11 10 9 8 7 6 7 6 6 6 6 5 4 4 4 4 4 5 6 6 6 6 7 7 8 7 7 7 7 7 7
24 24 23 22 22 21 20 18 16 14 12 11 10 9 8 7 7 7 7 6 7 6 6 5 5 7 9 8 7 6 6 6 7 7 7 7 8 7 7 7 7 7
26 26 24 23 23 22 20 18 16 14 13 12 11 10 8 7 7 7 7 7 7 7 7 8 10 11 11 11 10 9 7 6 7 8 7 7 8 7 7 7 7 7
26 26 24 24 24 23 21 21 19 17 15 13 12 11 9 8 7 7 7 7 8 8 10 12 12 12 13 12 11 10 9 6 6 7 7 7 7 7 7 7 7 9
28 27 26 26 24 23 22 22 22 21 19 16 14 12 10 9 7 7 7 8 9 10 12 11 11 13 14 14 14 12 11 9 6 4 6 7 6 7 7 7 8 8
29 28 28 27 25 24 23 22 21 20 17 16 15 13 10 9 9 8 9 12 13 10 8 9 10 11 11 12 14 14 12 10 6 3 5 6 6 7 6 7 8 8
30 29 29 27 26 25 25 24 21 17 13 13 13 11 10 11 12 11 10 12 11 8 6 8 8 8 8 9 10 11 11 10 6 3 5 6 6 6 6 5 7 7
31 31 29 28 28 27 26 24 20 16 13 13 14 13 12 13 14 13 10 9 9 8 7 7 7 7 7 7 7 8 9 10 7 5 5 5 5 7 6 5 5 5
30 31 30 29 28 26 23 19 16 15 14 15 15 14 15 15 15 13 10 8 8 9 8 8 8 8 7 7 7 6 7 8 6 6 6 4 6 8 8 6 7 7
25 26 27 27 24 21 17 13 13 14 15 16 16 16 17 18 17 15 12 10 10 10 9 9 9 9 8 8 7 6 6 6 4 4 5 5 7 8 6 6 10 10
17 17 21 21 16 15 16 16 16 16 16 17 17 17 19 19 19 17 15 13 12 11 11 10 10 10 10 10 9 8 8 7 4 2 4 4 6 7 6 7 12 12
15 16 20 18 15 18 21 21 20 19 18 18 17 18 19 19 18 17 15 14 13 12 11 11 11 11 11 11 11 11 11 10 6 2 3 3 4 6 6 7 13 15
17 18 19 17 17 20 21 20 20 19 18 19 18 17 17 16 15 15 14 13 12 12 12 11 12 12 12 12 12 12 12 12 10 6 4 6 7 6 5 6 12 17
18 18 19 17 17 18 17 17 18 18 17 16 15 14 14 13 13 12 11 11 11 10 10 11 12 11 11 11 11 11 11 12 12 11 9 11 11 10 9 7 9 16
Wind_Direction
182 181 171 162 165 165 157 152 153 148 143 144 145 148 167 186 187 193 204 209 213 219 224 219 224 230 224 221 220 211 210 214 212 216 222 219 216 205 197 198 196 196
178 174 169 161 159 161 157 151 148 145 143 144 153 167 183 190 182 190 204 208 215 231 236 229 229 232 230 235 230 213 213 218 208 205 218 218 212 219 214 198 192 194
176 172 167 161 158 159 159 153 149 151 155 158 170 182 190 191 180 186 194 188 194 233 236 226 229 228 216 231 236 216 220 224 211 203 205 206 204 212 219 208 192 194
175 172 165 161 161 163 164 161 157 158 162 164 172 180 183 193 191 178 183 182 185 212 223 217 226 228 209 218 226 216 220 216 213 212 204 203 207 206 213 212 196 187
175 170 165 163 160 160 163 164 161 157 158 162 163 164 171 178 176 163 170 186 193 203 207 208 225 233 225 226 223 222 225 211 211 217 208 207 211 210 211 210 199 187
172 167 166 166 161 159 160 160 158 154 156 161 150 149 166 166 157 159 168 180 194 203 205 212 227 231 232 237 229 231 236 213 206 210 203 201 205 203 202 203 200 188
168 164 163 163 162 161 160 157 155 155 156 153 147 150 156 149 146 157 165 172 186 196 204 220 234 233 231 237 231 232 237 215 211 215 202 190 193 194 189 194 191 176
168 167 162 162 165 164 161 158 157 160 158 149 151 153 141 143 164 171 162 162 174 188 199 206 218 230 230 227 224 221 219 215 217 217 201 186 194 194 190 193 184 177
171 173 168 167 168 165 161 161 162 166 163 156 157 153 143 154 177 170 158 162 167 176 192 191 188 211 221 217 218 215 209 214 201 184 189 191 187 183 184 189 183 181
171 172 170 168 168 167 164 164 167 167 164 159 156 153 152 160 166 157 157 166 166 161 167 173 171 180 182 173 185 187 179 188 178 169 176 171 164 164 167 183 187 183
174 171 172 170 168 169 168 166 166 164 162 161 157 158 161 156 154 156 161 171 171 161 155 159 161 161 159 157 161 160 160 171 167 161 160 156 158 163 163 174 186 181
175 174 173 169 167 170 170 166 164 164 161 158 157 161 161 154 152 155 163 172 171 166 167 167 164 163 168 176 176 164 156 161 163 158 159 164 170 174 173 176 178 176
175 173 170 166 166 169 168 163 163 163 157 153 156 159 155 152 157 159 161 166 166 166 170 164 157 167 177 182 186 183 174 167 165 161 161 166 169 176 184 186 185 181
172 170 168 169 168 166 164 162 161 158 151 149 151 151 149 151 159 159 154 159 165 163 160 162 172 184 186 181 179 191 196 189 182 176 173 173 172 176 185 187 190 189
172 173 174 174 167 162 160 158 155 150 149 150 145 141 141 144 152 155 154 159 157 151 169 190 194 194 192 187 181 179 186 204 205 195 192 195 192 191 195 192 193 195
176 177 176 172 164 160 157 154 150 147 144 143 139 136 137 137 141 146 152 156 153 168 195 203 201 198 195 193 190 179 169 179 204 206 203 206 206 209 212 203 196 205
179 177 174 172 170 167 166 163 159 153 148 146 145 142 137 136 142 148 149 154 167 192 209 207 202 203 200 197 195 188 175 163 162 196 205 203 207 210 212 204 197 212
180 177 175 176 176 175 175 172 166 161 160 160 159 154 146 141 148 155 161 174 188 201 204 196 198 200 199 199 196 196 196 182 161 176 200 200 205 205 207 206 199 203
177 176 176 176 176 177 177 176 173 174 176 175 173 177 179 173 172 174 179 190 197 195 184 186 193 190 190 194 191 194 197 184 164 177 199 200 205 209 214 203 191 195
178 177 175 174 174 176 177 178 181 186 189 188 190 198 200 195 194 199 204 203 196 191 190 190 189 189 191 190 188 190 185 173 164 177 189 193 198 202 210 198 180 193
174 173 172 172 173 174 175 178 185 192 197 198 200 202 200 199 204 211 213 207 200 201 203 199 197 200 199 193 192 188 182 185 196 197 191 204 218 213 214 221 224 223
163 164 165 164 166 172 179 189 195 195 199 202 201 201 200 199 203 207 207 203 201 202 205 206 206 206 205 206 205 194 188 197 216 220 209 218 235 235 233 242 244 239
157 165 168 166 173 191 202 207 204 198 198 200 202 203 204 204 205 206 206 205 203 202 206 209 212 212 211 212 212 212 214 211 203 230 238 234 251 259 255 256 258 252
163 176 183 189 206 211 205 201 198 194 192 193 195 199 203 205 205 206 207 209 209 210 209 210 213 217 219 219 218 219 224 221 207 213 258 244 258 276 274 273 273 265
160 168 177 186 194 192 188 188 186 186 186 185 185 190 194 196 197 200 202 204 209 213 214 214 214 215 215 218 220 221 224 223 213 205 230 240 246 266 277 284 284 277
147 150 153 158 164 165 165 167 168 170 173 175 176 178 184 189 193 199 204 209 217 224 228 231 229 225 221 221 224 225 228 232 229 226 238 248 252 260 265 272 290 289